Home > Time Zones > World Clock > Weather > India > Surat > Past weeks

Flag Weather past 2 weeks in Surat, Gujarat, India

Now
66 °F

Haze.


Feels Like: 66 °F
Forecast: 68 / 90 °F
Wind: No wind

Location: Ahmadabad Airport

Current Time: Nov 28, 2014 at 12:21:36 AM

Latest Report: Nov 27, 2014 at 11:40 PM


Visibility: 2 mi

Pressure: 29.86 "Hg

Humidity: 78%

Dew point: 59 °F

Location of SuratLocation

Historic Weather in Surat — Graph

°F

Surat temperature yesterday

Maximum temperature yesterday: 91 °F (at 3:10 PM)
Minimum temperature yesterday: 61 °F (at 6:10 AM)
Average temperature yesterday: 75 °F

Past Weeks' High & Low Weather Summary

 TemperatureHumidityPressure
High97 °F (Nov 13, 2:10 PM)89% (Nov 16, 5:40 AM)30.04 "Hg (Nov 16, 5:40 AM)
Low61 °F (Nov 23, 6:10 AM)23% (Nov 20, 12:40 PM)29.77 "Hg (Nov 26, 3:40 PM)
Average79 °F57%29.91 "Hg
* Reported Nov 12 10:40 PM — Nov 27 11:10 PM, Surat, Weather by CustomWeather, © 2014

Note: Actual official high and low records may vary slightly from our data, if they occured in-between our weather recording intervals... More about our weather records

Advertising

Surat weather history for previous 24 hours

 ConditionsComfort  
Time TempWeatherWind HumidityBarometerVisibility
11:10 PM
Nov 27
68 °FHaze.No wind73%29.86 "Hg2 mi
10:40 PM70 °FHaze.No wind64%29.86 "Hg2 mi
10:10 PM72 °FHaze.No wind61%29.86 "Hg2 mi
9:40 PM70 °FHaze.No wind69%29.86 "Hg2 mi
9:10 PM72 °FHaze.No wind61%29.86 "Hg2 mi
8:40 PM73 °FClear.No wind61%29.86 "Hg2 mi
8:10 PM75 °FClear.No wind50%29.86 "Hg2 mi
7:40 PM75 °FClear.No wind57%29.86 "Hg2 mi
7:10 PM77 °FClear.No wind51%29.83 "Hg2 mi
6:40 PM79 °FClear.No wind51%29.83 "Hg2 mi
5:10 PM88 °FClear.3 mph38%29.80 "Hg4 mi
4:40 PM90 °FClear.3 mph31%29.80 "Hg4 mi
4:10 PM91 °FClear.3 mph32%29.80 "Hg4 mi
3:40 PM91 °FClear.2 mph30%29.80 "Hg4 mi
3:10 PM91 °FClear.3 mph30%29.80 "Hg4 mi
2:40 PM90 °FClear.3 mph31%29.80 "Hg4 mi
2:10 PM90 °FClear.2 mph31%29.83 "Hg3 mi
1:10 PM90 °FClear.2 mph33%29.86 "Hg3 mi
12:40 PM88 °FClear.6 mph35%29.86 "Hg3 mi
12:10 PM86 °FClear.6 mph38%29.89 "Hg3 mi
11:40 AM86 °FClear.5 mph38%29.92 "Hg3 mi
9:40 AM75 °FClear.2 mph50%29.95 "Hg1 mi
8:40 AM70 °FHaze.No wind60%29.92 "Hg1 mi
8:10 AM66 °FHaze.No wind68%29.92 "Hg1 mi
6:40 AM61 °FHaze.No wind83%29.89 "Hg2 mi
6:10 AM61 °FHaze.2 mph83%29.86 "Hg2 mi
5:40 AM63 °FHaze.2 mph77%29.86 "Hg2 mi
5:10 AM63 °FHaze.2 mph77%29.86 "Hg2 mi
4:40 AM63 °FHaze.2 mph77%29.83 "Hg2 mi
4:10 AM63 °FHaze.No wind83%29.83 "Hg2 mi
3:40 AM64 °FHaze.No wind83%29.83 "Hg2 mi
2:40 AM64 °FHaze.No wind78%29.86 "Hg2 mi
2:10 AM64 °FHaze.No wind78%29.86 "Hg2 mi
1:40 AM64 °FHaze.No wind73%29.86 "Hg2 mi
12:40 AM66 °FHaze.No wind68%29.86 "Hg2 mi
12:10 AM68 °FHaze.No wind64%29.86 "Hg2 mi
Weather by CustomWeather, © 2014

See weather overviewHow to use our weather pages